Wind_Speed
21 23 22 23 21 19 19 20 24 26 27 29 30 31 32 32 34 35 36 36 37 37 37 35 34 34 32 30 28 29 30 30 29 28 25 24 24 25 25 26 28 30 31
24 25 24 25 24 22 22 24 27 29 31 32 32 33 33 33 34 35 36 37 38 37 37 34 33 32 31 28 26 25 24 25 25 25 25 26 26 27 28 29 31 33 34
27 27 27 27 27 27 27 28 29 32 33 34 34 34 34 34 35 37 38 38 38 38 35 33 31 31 30 29 27 26 25 24 24 25 26 25 26 27 29 31 33 36 38
29 29 30 30 31 31 32 32 32 34 35 35 35 35 35 36 37 38 39 39 39 39 35 33 31 31 31 30 29 28 27 27 26 26 27 28 31 32 34 36 38 40 43
31 32 34 34 34 35 35 35 35 36 36 36 36 35 36 37 38 39 40 40 40 39 36 34 32 31 31 31 30 30 30 30 30 30 32 33 35 37 40 42 44 47 50
34 34 35 36 37 38 38 38 37 36 36 36 36 36 37 38 40 41 40 41 41 38 37 35 34 33 33 31 31 32 32 32 33 34 36 38 40 42 45 47 49 52 55
36 35 36 38 38 38 38 38 37 37 37 37 37 38 39 40 41 42 41 41 40 39 38 37 36 35 34 34 34 34 34 36 37 39 40 42 44 47 50 52 54 56 58
41 40 39 38 37 36 36 36 36 37 38 38 39 40 41 42 42 42 42 42 41 40 39 39 38 37 36 36 36 37 38 40 41 43 44 47 49 51 54 56 58 59 60
45 43 40 37 35 34 34 34 35 36 37 38 39 40 41 42 42 43 43 43 42 42 42 41 41 39 39 39 39 40 41 42 44 46 48 50 53 55 57 59 61 62 62
43 41 37 34 33 32 32 33 34 36 37 38 39 40 42 42 43 44 44 44 44 44 43 43 43 42 42 42 43 44 45 46 48 50 51 53 56 58 59 61 62 63 63
36 35 33 32 31 32 32 33 34 35 36 38 39 40 42 43 44 45 46 47 47 47 47 47 46 46 46 46 47 48 49 50 51 53 54 56 58 59 59 60 61 61 62
30 30 31 31 31 32 33 34 35 36 37 38 40 42 43 45 46 48 49 50 51 51 51 50 50 50 50 50 51 52 53 54 54 56 57 57 58 58 58 58 59 61 62
29 29 30 31 32 34 35 36 37 38 39 41 42 44 46 47 49 51 52 53 53 53 53 53 53 53 53 53 54 55 55 56 57 57 57 57 57 57 57 58 59 60 61
30 31 32 33 34 35 37 38 39 41 42 44 45 47 49 50 52 53 54 54 54 54 54 54 54 54 55 55 56 57 57 57 57 57 56 56 56 56 57 57 58 59 59
33 34 36 37 38 39 40 41 42 44 45 47 49 51 52 53 54 55 55 55 55 55 54 54 55 55 55 56 57 57 57 56 56 55 55 55 55 55 55 56 56 56 54
35 37 39 41 42 43 44 45 47 48 49 50 51 52 53 53 53 53 53 53 53 54 54 55 56 56 56 56 56 56 56 56 55 54 54 54 53 53 53 53 52 50 48
36 38 40 41 42 44 46 47 49 50 51 51 51 51 51 50 50 50 50 51 53 54 55 55 55 55 55 55 55 55 55 53 53 52 52 51 51 49 49 48 47 43 39
38 39 40 40 41 41 42 42 43 45 45 45 45 45 46 46 46 47 48 50 51 52 52 53 53 54 54 54 54 53 52 51 50 49 48 47 46 45 44 41 38 34 32
38 38 38 38 38 38 38 38 39 40 41 40 40 42 44 45 45 46 47 49 50 50 51 52 52 52 51 51 50 49 48 47 46 45 44 42 41 39 36 32 29 27 28
35 36 37 37 37 38 39 40 40 40 40 40 42 43 44 45 45 46 47 48 48 49 49 49 49 48 48 48 47 46 45 44 42 40 38 35 33 31 27 24 22 23 24
31 32 32 33 34 36 37 38 38 39 40 41 42 43 44 44 45 45 46 46 46 46 46 46 46 46 45 44 44 43 41 39 37 34 31 28 24 21 19 18 18 19 20
30 31 31 32 34 35 36 37 38 39 40 41 42 42 42 42 43 43 43 44 44 44 44 44 43 43 42 41 40 39 36 32 30 26 23 19 16 13 12 13 15 17 18
29 30 31 33 34 34 35 36 37 38 39 39 39 40 40 40 41 41 41 41 42 42 41 41 40 39 38 36 34 31 27 24 21 17 14 11 8 7 9 11 13 14 15
27 28 29 30 31 32 33 34 34 35 36 37 37 38 38 39 39 39 39 39 39 38 37 36 35 33 31 29 26 23 20 17 14 10 7 5 4 5 7 9 10 12 14
25 25 26 27 28 29 30 32 33 34 35 36 37 37 37 37 36 36 35 34 33 31 30 28 27 25 23 21 18 15 12 10 7 4 1 0 2 4 6 8 10 13 14
21 22 23 25 27 28 30 31 33 34 34 35 34 34 33 32 31 29 28 27 25 23 22 20 19 17 15 12 9 6 3 3 4 4 4 4 4 5 7 9 11 13 14
Wind_Direction
243 246 251 262 268 274 282 288 292 296 298 299 300 304 307 310 311 313 316 320 324 328 330 330 328 329 326 315 305 298 293 290 285 282 279 279 282 285 286 287 287 287 286
240 247 254 260 264 272 278 284 287 290 292 292 294 296 300 302 304 308 311 314 319 324 327 327 327 328 330 324 317 309 306 298 291 289 291 290 289 289 287 287 286 286 286
243 249 255 261 266 272 275 278 281 284 285 286 289 291 293 293 297 301 304 309 313 316 319 323 326 329 331 327 323 321 314 312 308 303 298 294 291 290 290 288 288 288 289
247 255 260 263 268 271 274 275 278 280 281 282 284 285 286 287 290 294 298 302 306 310 313 317 320 321 324 324 322 321 318 315 313 311 306 300 294 292 290 288 287 287 287
252 255 258 263 268 272 275 276 278 278 277 278 279 280 280 283 286 290 294 297 302 306 309 311 314 314 316 317 317 316 313 311 308 304 301 297 294 293 291 291 291 291 291
257 260 263 266 268 271 274 276 276 275 275 275 276 277 278 281 284 287 290 294 298 302 305 306 307 309 310 309 309 309 308 306 303 301 299 296 294 293 293 292 292 292 292
263 266 269 270 271 271 273 273 274 274 273 273 274 275 278 280 283 286 289 292 295 298 299 301 302 303 304 303 304 305 304 303 301 299 297 295 294 293 292 292 292 292 292
266 269 271 272 271 270 270 270 270 270 270 271 272 274 276 279 282 286 288 290 293 295 296 296 297 298 300 301 301 302 301 300 299 298 296 295 293 293 292 292 292 292 292
265 269 270 270 269 268 267 266 267 267 268 270 272 274 276 279 282 285 287 290 291 292 293 293 295 296 297 298 299 299 299 297 296 296 295 294 293 293 293 293 293 293 293
263 265 266 266 265 264 263 263 264 264 266 268 270 273 276 279 282 284 287 288 288 289 291 292 293 294 295 296 297 298 297 297 296 295 294 293 293 293 293 293 294 295 295
259 260 262 262 262 262 261 262 262 263 265 267 270 273 276 279 281 283 284 285 286 288 290 291 292 293 294 295 296 296 296 296 295 294 294 293 294 294 295 296 296 296 296
258 259 260 260 260 260 261 262 263 264 266 268 271 273 276 278 279 281 282 283 285 287 289 290 291 293 294 294 295 296 296 296 295 295 295 295 296 297 297 297 297 298 298
257 258 259 260 261 261 262 263 265 266 268 270 272 274 275 277 279 279 281 282 284 285 287 288 290 291 292 294 295 295 295 296 296 296 297 298 298 299 299 299 299 299 299
255 258 261 262 263 264 265 266 267 268 269 271 272 274 275 276 277 278 279 280 282 284 285 287 289 291 293 294 294 295 296 296 297 298 298 299 300 300 300 300 300 300 300
256 260 262 264 264 265 266 267 267 268 270 271 273 273 273 274 274 275 277 278 280 282 285 287 290 291 292 293 294 295 296 296 297 298 299 300 301 301 300 300 301 302 303
261 263 264 264 265 265 266 267 268 269 270 270 271 272 272 272 273 274 277 279 282 285 288 289 291 292 292 293 294 295 296 297 298 299 300 300 300 301 301 302 303 304 305
266 265 265 266 266 266 267 268 268 268 268 269 269 270 271 273 275 278 281 284 287 288 289 290 291 292 292 293 294 296 296 297 298 299 300 300 301 302 302 303 305 306 308
270 269 266 264 265 265 264 263 263 264 266 269 273 276 279 280 282 284 285 286 287 288 289 290 291 292 293 294 295 295 297 298 298 299 300 301 302 303 304 305 307 309 311
269 268 266 264 265 268 271 273 274 276 280 282 283 286 288 288 288 289 289 289 289 290 290 291 292 293 294 295 295 296 297 298 299 300 301 302 302 303 304 306 307 310 313
269 268 268 269 269 273 277 280 283 285 286 288 289 290 291 292 291 291 290 290 290 291 291 292 293 293 294 295 295 296 296 297 298 299 299 300 301 302 304 306 310 314 317
271 271 273 277 281 285 287 289 290 291 292 292 293 293 293 292 292 291 291 291 291 292 293 293 293 294 295 295 295 296 296 296 297 298 299 299 299 301 305 310 315 320 324
284 286 288 291 293 295 295 294 294 294 294 294 294 294 294 293 293 293 293 293 293 294 294 295 295 295 295 295 295 295 295 295 296 297 297 297 299 303 310 318 325 331 335
294 294 295 296 296 297 296 296 296 296 296 296 296 296 296 295 295 295 295 295 295 296 296 296 296 296 295 294 293 292 291 291 292 292 292 294 301 313 324 331 338 344 348
299 299 299 300 300 300 300 300 300 300 300 299 298 298 298 298 297 297 297 297 297 297 297 297 297 296 295 294 291 288 285 283 283 284 286 294 316 339 345 350 358 4 6
304 304 304 304 305 305 306 305 305 304 303 302 301 300 299 299 299 299 299 300 300 300 300 299 299 299 298 295 291 286 278 271 265 255 237 82 28 22 19 22 22 21 22
309 310 310 310 310 310 310 309 308 307 305 304 302 301 301 300 300 300 300 301 302 304 304 305 306 306 305 303 294 278 244 188 158 139 120 95 78 67 58 46 39 36 34
Height
5867 5869 5869 5869 5870 5873 5874 5874 5873 5872 5872 5872 5871 5870 5870 5869 5867 5865 5863 5861 5860 5857 5854 5850 5846 5842 5839 5836 5834 5833 5833 5833 5833 5834 5834 5834 5834 5833 5833 5832 5831 5829 5828
5862 5864 5864 5863 5864 5867 5869 5869 5868 5868 5867 5866 5866 5865 5865 5865 5863 5861 5858 5857 5855 5853 5850 5847 5843 5840 5836 5833 5830 5829 5828 5828 5827 5828 5829 5829 5828 5827 5826 5825 5823 5821 5819
5859 5860 5859 5859 5859 5861 5863 5864 5863 5862 5861 5860 5860 5859 5859 5859 5857 5855 5853 5851 5850 5848 5846 5843 5839 5836 5833 5830 5827 5826 5824 5823 5823 5822 5822 5822 5821 5820 5819 5817 5814 5812 5809
5855 5857 5856 5855 5856 5856 5856 5857 5857 5856 5854 5854 5853 5853 5853 5852 5851 5849 5848 5846 5844 5843 5840 5838 5835 5832 5829 5826 5823 5821 5819 5818 5816 5815 5814 5813 5812 5811 5809 5807 5804 5802 5799
5850 5851 5851 5851 5850 5850 5850 5849 5850 5848 5847 5847 5846 5846 5845 5844 5844 5842 5841 5840 5838 5836 5834 5832 5829 5827 5824 5821 5818 5815 5813 5811 5810 5808 5806 5804 5802 5800 5797 5795 5792 5788 5784
5843 5844 5845 5845 5845 5844 5843 5842 5842 5841 5840 5839 5838 5838 5837 5836 5836 5835 5834 5833 5831 5829 5827 5825 5823 5820 5817 5814 5812 5809 5807 5804 5802 5800 5798 5795 5792 5789 5786 5783 5780 5775 5770
5836 5837 5838 5837 5837 5837 5836 5834 5833 5833 5832 5831 5830 5829 5829 5828 5827 5826 5825 5825 5823 5822 5820 5818 5815 5813 5810 5807 5805 5802 5799 5796 5794 5791 5788 5784 5781 5777 5773 5770 5766 5762 5757
5828 5829 5829 5829 5829 5828 5827 5827 5826 5825 5824 5823 5822 5822 5821 5820 5819 5818 5817 5816 5815 5813 5811 5809 5807 5804 5801 5799 5796 5793 5790 5787 5783 5780 5776 5772 5768 5764 5759 5755 5751 5747 5742
5819 5819 5820 5820 5819 5819 5819 5818 5818 5817 5816 5816 5815 5814 5813 5812 5811 5810 5809 5807 5806 5804 5802 5800 5797 5794 5792 5789 5786 5783 5780 5776 5772 5769 5765 5760 5755 5750 5745 5739 5734 5730 5726
5810 5810 5810 5810 5810 5811 5811 5811 5810 5810 5809 5809 5808 5806 5805 5804 5802 5801 5799 5798 5796 5794 5792 5789 5787 5784 5781 5778 5775 5772 5768 5764 5760 5756 5752 5747 5742 5736 5730 5725 5718 5712 5707
5800 5801 5801 5801 5802 5802 5803 5803 5802 5802 5802 5801 5800 5799 5797 5796 5794 5792 5790 5788 5786 5783 5781 5778 5775 5773 5770 5766 5763 5759 5756 5752 5747 5743 5738 5733 5727 5722 5716 5709 5703 5696 5690
5792 5792 5792 5793 5793 5794 5794 5794 5794 5794 5793 5793 5792 5790 5788 5787 5785 5782 5780 5778 5775 5772 5770 5767 5764 5760 5757 5754 5750 5746 5743 5739 5734 5729 5724 5719 5713 5707 5701 5695 5688 5682 5674
5784 5784 5784 5785 5785 5786 5786 5786 5785 5785 5784 5783 5782 5780 5778 5776 5774 5772 5769 5766 5763 5761 5757 5754 5751 5748 5745 5741 5737 5733 5729 5725 5720 5715 5710 5705 5700 5694 5687 5681 5674 5667 5659
5776 5776 5776 5777 5777 5777 5777 5776 5776 5775 5774 5773 5771 5769 5767 5765 5762 5760 5757 5754 5751 5748 5745 5742 5738 5735 5732 5728 5724 5720 5716 5711 5706 5701 5697 5691 5686 5680 5673 5666 5659 5652 5645
5767 5768 5768 5768 5767 5767 5766 5766 5765 5763 5762 5761 5759 5757 5754 5752 5749 5747 5744 5741 5738 5735 5731 5728 5725 5722 5719 5714 5710 5706 5702 5698 5693 5689 5683 5678 5673 5666 5659 5652 5645 5638 5631
5758 5758 5758 5757 5756 5755 5754 5753 5752 5751 5749 5747 5745 5743 5741 5738 5736 5733 5730 5727 5725 5722 5719 5715 5712 5708 5705 5701 5697 5693 5689 5685 5680 5676 5670 5665 5660 5654 5647 5639 5632 5625 5619
5748 5748 5747 5746 5745 5744 5742 5741 5739 5737 5736 5734 5732 5730 5727 5725 5722 5720 5717 5714 5712 5709 5705 5702 5699 5695 5691 5688 5684 5680 5676 5671 5667 5663 5658 5652 5647 5641 5635 5628 5621 5615 5609
5739 5738 5737 5735 5734 5732 5729 5728 5726 5724 5722 5720 5719 5716 5714 5712 5709 5707 5704 5702 5699 5696 5693 5689 5686 5682 5677 5674 5670 5666 5663 5659 5655 5650 5646 5640 5635 5630 5624 5618 5613 5607 5602
5729 5728 5726 5724 5722 5720 5718 5716 5715 5713 5710 5708 5706 5704 5702 5699 5697 5694 5692 5689 5686 5682 5679 5675 5672 5668 5664 5660 5657 5654 5650 5647 5643 5639 5635 5630 5625 5620 5615 5611 5607 5602 5598
5719 5718 5716 5714 5712 5710 5708 5707 5705 5702 5700 5698 5695 5693 5690 5687 5684 5682 5679 5675 5672 5669 5665 5662 5658 5655 5652 5648 5644 5641 5639 5635 5632 5628 5624 5620 5616 5612 5609 5605 5602 5598 5594
5711 5709 5708 5705 5703 5701 5699 5697 5695 5692 5690 5687 5684 5681 5678 5675 5672 5669 5666 5662 5659 5655 5652 5649 5646 5642 5639 5636 5632 5629 5627 5624 5621 5619 5616 5612 5609 5606 5604 5601 5598 5595 5591
5704 5702 5700 5697 5695 5693 5690 5688 5685 5682 5679 5676 5672 5669 5666 5663 5660 5656 5653 5649 5646 5643 5639 5636 5632 5629 5626 5624 5620 5618 5616 5614 5612 5610 5608 5606 5604 5603 5601 5598 5596 5592 5589
5697 5695 5692 5690 5687 5684 5681 5678 5675 5671 5668 5664 5661 5657 5654 5650 5647 5644 5640 5637 5634 5631 5627 5624 5621 5617 5614 5612 5610 5608 5606 5605 5604 5603 5602 5602 5601 5600 5598 5596 5594 5591 5587
5690 5687 5685 5682 5679 5676 5672 5669 5665 5661 5658 5654 5651 5647 5643 5639 5636 5632 5629 5626 5622 5619 5616 5613 5610 5607 5604 5602 5600 5599 5599 5599 5599 5599 5599 5599 5599 5598 5597 5595 5593 5590 5587
5684 5681 5678 5675 5672 5669 5665 5661 5657 5653 5648 5644 5640 5637 5633 5629 5625 5622 5619 5616 5612 5609 5607 5604 5601 5598 5596 5594 5592 5592 5592 5593 5594 5596 5597 5598 5598 5598 5597 5595 5593 5591 5587
5679 5676 5673 5670 5666 5663 5659 5654 5650 5645 5640 5635 5631 5627 5623 5620 5617 5614 5610 5607 5605 5602 5600 5597 5595 5592 5590 5588 5587 5588 5589 5591 5593 5595 5596 5598 5598 5598 5598 5596 5595 5592 5589